Regional Weather Roundup
Issued by NWS Upton, NY

Current Version | Previous Version | Graphics & Text | Print | Product List | Glossary Off
Versions: 1 2 3 4 5 6 7 8 9 10 11 12 13 14 15 16 17 18 19 20 21 22 23 24 25 26 27 28 29 30 31 32 33 34 35 36 37 38 39 40 41 42 43 44 45 46 47 48 49 50

000
ASUS41 KOKX 030505
RWROKX

REGIONAL WEATHER ROUNDUP
NATIONAL WEATHER SERVICE NEW YORK NY
100 AM EDT WED SEP 03 2014

NOTE: "FAIR" INDICATES FEW OR NO CLOUDS BELOW 12,000 FEET WITH NO
SIGNIFICANT WEATHER AND/OR OBSTRUCTIONS TO VISIBILITY.

NYZ071-072-176-178-NJZ106-104-030600-
NEW YORK CITY METRO AREA


CITY           SKY/WX    TMP DP  RH WIND       PRES   REMARKS
CENTRAL PARK   MOCLDY    79  66  64 W6        29.86R
LAGUARDIA APRT MOCLDY    80  66  62 W16G28    29.82R
KENNEDY INTL   MOCLDY    77  69  76 SW18G25   29.84R
NEWARK/LIBERTY MOCLDY    79  67  66 W14G25    29.84R
BRNX BOT. GARD   N/A     79  66  65 W9        29.84R
TETERBORO      MOCLDY    79  66  64 W10G20    29.82R
$$

NYZ177-179-078>081-030600-
LONG ISLAND NEW YORK

CITY           SKY/WX    TMP DP  RH WIND       PRES   REMARKS
FARMINGDALE    MOCLDY    78  67  68 SW17G25   29.82S
ISLIP          PTCLDY    79  66  64 SW18      29.79S
SHIRLEY        PTCLDY    80  67  64 SW16G26   29.81S
WESTHAMPTON    PTCLDY    79  69  71 SW18G28   29.81F
MONTAUK POINT    N/A     77  70  79 SW14G23   29.79F
$$

NYZ052-065-067-030600-
HUDSON VALLEY

CITY           SKY/WX    TMP DP  RH WIND       PRES   REMARKS
WHITE PLAINS   MOCLDY    78  67  68 W15G21    29.82R
NEWBURGH       CLEAR     73  68  83 W16       29.84R
MONTGOMERY     PTCLDY    73  65  75 W8G21     29.84R
POUGHKEEPSIE   PTCLDY    77  67  71 W9        29.80R
ALBANY         MOCLDY    70  67  90 W9        29.82R
$$

NJZ001-105-106-008-010-013-015-019>022-104-030600-
NEW JERSEY

CITY           SKY/WX    TMP DP  RH WIND       PRES   REMARKS
NEWARK/LIBERTY MOCLDY    79  67  66 W14G25    29.84R
TETERBORO      MOCLDY    79  66  64 W10G20    29.82R
CALDWELL       MOCLDY    77  66  68 W8        29.85R
MORRISTOWN     MOCLDY    77  66  69 W12       29.86R
SOMERVILLE     MOCLDY    77  67  71 VRB3      29.85R
LINDEN         FAIR      82  69  64 NW14      29.86R
SUSSEX         PTCLDY    74  65  73 VRB5      29.87R
ANDOVER          N/A     72  63  73 MISG      29.89R
TRENTON        MOCLDY    76  66  71 W7        29.87S
MILLVILLE      CLOUDY    72  69  90 CALM      29.89F
ATLANTIC CITY  CLOUDY    73  69  87 MISG      29.89F
WRIGHTSTOWN    CLOUDY    72  69  90 W7        29.85F
TOMS RIVER     CLOUDY    72  68  88 SW5       29.88S
BELMAR         CLOUDY    75  64  69 W8        29.87R
$$

PAZ047>061-062-071-030600-
EASTERN PENNSYLVANIA

CITY           SKY/WX    TMP DP  RH WIND       PRES   REMARKS
PHILADELPHIA   MOCLDY    75  69  81 W7        29.89S
ALLENTOWN      CLEAR     73  66  78 W7        29.89R
SCRANTON       CLOUDY    70  64  81 W5        29.92R
$$

CTZ002-004>006-009-010-012-RIZ004-006-007-MAZ004-011-015-030600-
SOUTHERN NEW ENGLAND
 IN CT

CITY           SKY/WX    TMP DP  RH WIND       PRES   REMARKS
BRADLEY INTL   CLOUDY    79  70  74 S7        29.74R
HARTFORD       MOCLDY    80  70  71 S8        29.73F
DANBURY        MOCLDY    77  67  71 W13G21    29.81R
WTRBRY/OXFORD  MOCLDY    75  68  78 W7        29.81R
BRIDGEPORT     MOCLDY    81  70  69 SW17G24   29.77R
MERIDEN        MOCLDY    78  70  76 S6        29.75F
NEW HAVEN      MOCLDY    82  69  64 SW15G25   29.77R
CHESTER        FAIR      79  72  78 SW7       29.79R
GROTON         CLEAR     76  71  85 SW13      29.76F
WILLIMANTIC    PTCLDY    79  71  76 SW8       29.75F

 IN RI

CITY           SKY/WX    TMP DP  RH WIND       PRES   REMARKS
PROVIDENCE     CLEAR     74  71  91 S6        29.76F
BLOCK ISLAND   PTCLDY    73  68  83 SW18G24   29.78F
WESTERLY       CLEAR     78  70  76 SW10G16   29.77F

 IN MA

CITY           SKY/WX    TMP DP  RH WIND       PRES   REMARKS
BOSTON         CLEAR     76  71  85 SW10      29.72F
WORCESTER      PTCLDY    73  69  87 SW13      29.77F
WESTFIELD      CLOUDY    78  67  68 NW21      29.76R
PROVINCETOWN   CLEAR     72  70  94 SW14G22   29.76F
NANTUCKET      CLEAR     71  69  93 SW13      29.80F
$$

ANZ330-335-338-340-345-350-353-355-030600-
COASTAL MARINE OBSERVATIONS


STATION/POSITION TIME  SKY/WX   TEMP    WIND        PRES    VSBY  WAVE
                                AIR SEA DIR/SP/G                  HT/PER
                 (UTC)          (F)     (DEG/KT/KT) (MB)    (MI)  (FT/S)
NY HARB ENTRANCE NOT AVBL
4S FIRE IS       NOT AVBL
23SW MTP         0500                                 N/A           4/ 5
HUDSON CANYON    0500            77 75  240/ 17/ 21 1011.4          3/ 6
EXECUTION ROCKS  0500            80 75  270/ 19/ 27   N/A
WESTERN LI SOUND 0500            80     250/ 17/ 23   N/A           2/ 3
CENTRAL LI SOUND 0400            79 75  220/ 17/ 21   N/A           1/ 3
EASTERN LI SOUND 0400            76 71  210/ 14/ 17   N/A
ROBBINS REEF     0400            81     270/ 21/ 26   N/A
$$


>>>>>>>>>>>>>>>>>>>>>>>>>>>> KEY <<<<<<<<<<<<<<<<<<<<<<<<<<<
>                                                          <
>     SKY/WX - SKY CONDITION/PRESENT WEATHER               <
>     TMP    - TEMPERATURE IN FAHRENHEIT                   <
>     DP     - DEWPOINT IN FAHRENHEIT                      <
>     RH     - RELATIVE HUMIDITY IN PERCENT                <
>     WIND   - DIRECTION AND SPEED IN MPH                  <
>     PRES   - MEAN SEA LEVEL PRESSURE IN INCHES OF HG     <
>     WCI    - WIND CHILL INDEX                            <
>     VSB    - VISIBILITY IN MILES                         <
>     HX     - HEAT INDEX                                  <
>     TC     - TEMPERATURE IN CELSIUS                      <
>     VRB    - VARIABLE WIND DIRECTION                     <
>                                                          <
>>>>>>>>>>>>>>>>>>>>>>>>>>>> KEY <<<<<<<<<<<<<<<<<<<<<<<<<<<




USA.gov is the U.S. government's official web portal to all federal, state and local government web resources and services.